Grand Prairie, TX

5:22 PM CST on January 16, 2017 (GMT -0600)
Grand Prairie Municipal

Weather History for KGPM - May, 2014

Change the Weather History Date:

Thursday, May 15, 2014

  Actual Average (KRBD) Record (KRBD)
Temperature  
Mean Temperature 66 °F -  
Max Temperature 82 °F 81 °F 89 °F (1998)
Min Temperature 51 °F 61 °F 50 °F (2014)
Cooling Degree Days 2    
Growing Degree Days 16 (Base 50)    
Moisture  
Dew Point 41 °F    
Average Humidity 53    
Maximum Humidity 76    
Minimum Humidity 13    
Precipitation  
Precipitation 0.00 in - - ()
Sea Level Pressure  
Sea Level Pressure 30.20 in    
Wind  
Wind Speed 4 mph (SSE)    
Max Wind Speed 14 mph    
Max Gust Speed 17 mph    
Visibility 10 miles    
Events      
Averages and records for this station are not official NWS values.
T = Trace of Precipitation, MM = Missing Value Source: NWS Daily Summary

Daily Weather History Graph

Daily Weather History Graph

Search for Another Location

Airport or City:

Trip Planner

Search our weather history database for the weather conditions in past years. The results will help you decide how hot, cold, wet, or windy it might be!

Date:

Astronomy

May. 15, 2014 Rise Set
Actual Time 6:29 AM CDT 8:20 PM CDT
Civil Twilight 6:02 AM CDT 8:47 PM CDT
Nautical Twilight 5:29 AM CDT 9:20 PM CDT
Astronomical Twilight 4:54 AM CDT 9:55 PM CDT
Moon 9:29 PM CDT (5/15) 7:16 AM CDT (5/15)
Length of Visible Light 14h 44m
Length of Day
13h 50m
Full, 99% of the Moon is Illuminated
May 15
Full
May 21
Last Quarter
May 28
New
Jun 5
First Quarter
Jun 12
Full

Hourly Weather History & Observations

Time (CDT) Temp. Dew Point Humidity Pressure Visibility Wind Dir Wind Speed Gust Speed Precip Events Conditions
12:15 AM 56.7 °F 42.1 °F 58% 30.26 in 10.0 mi Calm Calm - N/A   Clear
12:35 AM 55.8 °F 42.8 °F 62% 30.26 in 10.0 mi Calm Calm - N/A   Clear
12:55 AM 55.4 °F 43.2 °F 63% 30.26 in 10.0 mi Calm Calm - N/A   Clear
1:15 AM 56.3 °F 43.9 °F 63% 30.26 in 10.0 mi Calm Calm - N/A   Clear
1:35 AM 55.4 °F 43.9 °F 65% 30.26 in 10.0 mi ESE 3.5 mph - N/A   Clear
1:55 AM 54.7 °F 44.6 °F 69% 30.26 in 10.0 mi Calm Calm - N/A   Clear
2:15 AM 55.4 °F 44.8 °F 67% 30.26 in 10.0 mi ESE 3.5 mph - N/A   Clear
2:35 AM 54.9 °F 44.6 °F 68% 30.26 in 10.0 mi SE 3.5 mph - N/A   Clear
2:55 AM 54.5 °F 45.5 °F 72% 30.26 in 10.0 mi South 3.5 mph - N/A   Clear
3:15 AM 53.8 °F 45.1 °F 73% 30.25 in 10.0 mi South 5.8 mph - N/A   Clear
3:35 AM 53.1 °F 45.0 °F 74% 30.25 in 10.0 mi South 5.8 mph - N/A   Clear
3:55 AM 52.7 °F 44.8 °F 74% 30.25 in 10.0 mi South 4.6 mph - N/A   Clear
4:15 AM 52.7 °F 45.1 °F 75% 30.25 in 10.0 mi South 5.8 mph - N/A   Clear
4:35 AM 52.5 °F 45.0 °F 75% 30.24 in 10.0 mi South 4.6 mph - N/A   Clear
4:55 AM 52.5 °F 45.0 °F 75% 30.24 in 10.0 mi South 5.8 mph - N/A   Clear
5:15 AM 52.3 °F 44.8 °F 75% 30.24 in 10.0 mi South 6.9 mph - N/A   Clear
5:35 AM 52.2 °F 44.6 °F 75% 30.24 in 10.0 mi South 5.8 mph - N/A   Clear
5:55 AM 51.8 °F 44.4 °F 76% 30.24 in 10.0 mi South 5.8 mph - N/A   Clear
6:15 AM 51.8 °F 44.4 °F 76% 30.24 in 10.0 mi South 6.9 mph - N/A   Clear
6:35 AM 52.2 °F 44.2 °F 74% 30.24 in 10.0 mi South 6.9 mph - N/A   Clear
6:50 AM 51.8 °F 44.6 °F 76% 30.24 in 10.0 mi South 6.9 mph - N/A   Clear
7:50 AM 55.4 °F 44.6 °F 67% 30.25 in 10.0 mi South 9.2 mph - N/A   Clear
9:50 AM 66.2 °F 42.8 °F 43% 30.25 in 10.0 mi South 12.7 mph - N/A   Clear
10:50 AM 73.4 °F 37.4 °F 27% 30.23 in 10.0 mi SSW 13.8 mph - N/A   Clear
12:50 PM 77.0 °F 33.8 °F 21% 30.20 in 10.0 mi SSW 10.4 mph 17.3 mph N/A   Clear
2:50 PM 80.6 °F 26.6 °F 14% 30.15 in 10.0 mi West 9.2 mph 17.3 mph N/A   Clear
4:50 PM 82.4 °F 26.6 °F 13% 30.09 in 10.0 mi West 5.8 mph - N/A   Clear
6:50 PM 80.6 °F 26.6 °F 14% 30.07 in 10.0 mi West 5.8 mph - N/A   Clear
8:15 PM 75.4 °F 34.9 °F 23% 30.07 in 10.0 mi NNE 3.5 mph - N/A   Clear
8:55 PM 71.6 °F 37.6 °F 29% 30.08 in 10.0 mi NNE 4.6 mph - N/A   Clear
9:15 PM 71.6 °F 37.6 °F 29% 30.09 in 10.0 mi NNE 5.8 mph - N/A   Clear
9:35 PM 71.1 °F 37.6 °F 29% 30.10 in 10.0 mi NE 4.6 mph - N/A   Clear
9:55 PM 69.6 °F 38.3 °F 32% 30.10 in 10.0 mi NNE 3.5 mph - N/A   Clear
10:15 PM 68.9 °F 40.5 °F 35% 30.10 in 10.0 mi NNE 6.9 mph - N/A   Clear
10:35 PM 68.2 °F 42.6 °F 40% 30.11 in 10.0 mi NNE 8.1 mph - N/A   Clear
10:55 PM 67.8 °F 44.4 °F 43% 30.11 in 10.0 mi NE 8.1 mph - N/A   Clear
11:15 PM 68.5 °F 43.5 °F 40% 30.13 in 10.0 mi NNE 11.5 mph - N/A   Clear
11:35 PM 68.0 °F 42.4 °F 39% 30.13 in 10.0 mi NE 12.7 mph - N/A   Clear
11:55 PM 66.7 °F 43.2 °F 42% 30.14 in 10.0 mi NE 9.2 mph - N/A   Clear